Location: Battersea Observatory
(44.4318°N, 76.3841°W)
Time: 22:30:12
(UTC-04:00)

Tiros 1 despin weight - Pass Details

Date: 31 January 2022
Orbit: 592 x 639 km, 48.2° (Epoch: 25 May)

Event Time Altitude Azimuth Distance (km) Brightness Sun altitude
Rises 19:26:30 0° 292° (WNW) 2,898 ? -23.9°
Reaches altitude 10° 19:28:48 10° 291° (WNW) 1,998 ? -24.3°
Enters shadow 19:33:21 76° 212° (SSW) 652 ? -25.1°
Maximum altitude 19:33:24 76° 206° (SSW) 652 - -25.1°
Drops below altitude 10° 19:38:03 10° 121° (ESE) 2,017 - -25.9°
Sets 19:40:23 0° 119° (ESE) 2,928 - -26.3°
